Regional Weather Roundup
Issued by NWS Lake Charles, LA

Home | Current Version | Previous Version | Text Only | Print | Product List | Glossary On
Versions: 1 2 3 4 5 6 7 8 9 10 11 12 13 14 15 16 17 18 19 20 21 22 23 24 25 26 27 28 29 30 31 32 33 34 35 36 37 38 39 40 41 42 43 44 45 46 47 48 49 50
337
ASUS44 KLCH 240410
RWRLCH
REGIONAL WEATHER ROUNDUP
NATIONAL WEATHER SERVICE LAKE CHARLES LA
1100 PM CDT SAT JUL 23 2016

Note: "fair" indicates few or no clouds below 12,000 feet with no
significant weather and/or obstructions to visibility.


ACROSS SOUTHEAST TEXAS

CITY           SKY/WX    TMP DP  RH WIND       PRES   REMARKS
BEAUMONT       LGT RAIN  79  75  87 S3        29.96R
BEAUMONT CITY  FAIR      81  75  84 CALM      29.97R
ORANGE         MOCLDY    79  75  89 CALM      29.98R
JASPER         CLEAR     80  74  83 CALM      29.98S
$$

ACROSS CENTRAL LOUISIANA

CITY           SKY/WX    TMP DP  RH WIND       PRES   REMARKS
LEESVILLE      CLEAR     84  77  79 S5        29.96R
FULLERTON      FAIR      81  78  91 CALM      29.94R
ALEXANDRIA INT CLOUDY    83  77  82 SE5       29.94R
ESLER FIELD    CLOUDY    80  78  94 CALM      29.96R
DERIDDER       FAIR      83  77  80 CALM      29.99R
OAKDALE        CLEAR     80  79  96 CALM      29.96S
OPELOUSAS      FAIR      81  76  85 E10       29.97R
$$

ACROSS SOUTHWEST AND SOUTH CENTRAL LOUISIANA

CITY           SKY/WX    TMP DP  RH WIND       PRES   REMARKS
SULPHUR        CLOUDY    83  77  80 S3        29.98R
LAKE CHARLES   PTCLDY    82  76  81 S3        29.97R
CHENNAULT INT  CLOUDY    83  76  79 S5        29.97R
CAMERON PHI    CLEAR     86  75  70 S6        29.96R
DEQUINCY       FAIR      80  75  86 CALM      29.97R
JENNINGS       FAIR      82  77  83 S5        29.97R
LAFAYETTE      CLEAR     83  80  91 S3        29.97R
NEW IBERIA     CLEAR     81  77  88 S5        29.98R
ABBEVILLE      FAIR      82  79  91 SW3       29.98S
PATTERSON      CLEAR     80  78  94 S3        29.99R
SALT POINT       N/A     83  78  85 CALM      29.96S
$$

SELECTED SITES ACROSS THE REGION

CITY           SKY/WX    TMP DP  RH WIND       PRES   REMARKS
HOUSTON BUSH   PTCLDY    86  75  69 S9        29.95R
HOUSTON HOBBY  PTCLDY    83  75  77 SE3       29.95R
GALVESTON      CLEAR     85  77  77 S10       29.96R
COLLEGE STAT   PTCLDY    88  73  61 S8        29.93R
CONROE         CLEAR     83  75  77 E7        29.95R
HUNTSVILLE     CLEAR     88  74  63 SE5       29.94R
LUFKIN         CLEAR     84  74  71 SE5       29.94S
SHREVEPORT     LGT RAIN  79  77  94 CALM      29.93F
MONROE         CLOUDY    77  74  90 S5        29.95F
NATCHEZ MS     CLOUDY    79  72  78 SE6       29.98S
BATON ROUGE    CLOUDY    79  75  87 CALM      29.98R
N.O. INTL ARPT MOCLDY    84  76  76 CALM      29.98R
SLIDELL        MOCLDY    81  78  91 CALM      29.98R
$$

MARINE REPORTS

STATION/POSITION TIME  SKY/WX   TEMP    WIND        PRES    VSBY
                                AIR SEA DIR/SP/G
                 (UTC)          (F)     (DEG/KT/KT) (MB)    (MI)
BUOY 30 S HIGH I 0350            86 89  180/ 10/ 12 1014.4R
WVE H/P(F/S)=  1/ 6

SEA RIM ST PARK  0400            86     180/  6/  8 1015.2R
PORT ARTHUR      0300               90                N/A
SABINE PASS N    0300            86 92                N/A
TEXAS POINT      NOT AVBL
CALCASIEU PASS   0300            87 89                N/A
LK CHARLES BEACH 0300            85 89                N/A
MARSH ISLAND     0300            88                   N/A
FRESH WATER LOCK 0300            86 89                N/A
AMERADA PASS     0300            83 88                N/A
$$




USA.gov is the U.S. government's official web portal to all federal, state and local government web resources and services.